BSAT-3A

Last updated on Jan. 15, 2021, 6:30 a.m. UTC

1 32019U 07036B   21014.90118899 -.00000357  00000-0  00000-0 0  9990
2 32019   0.0695 241.0485 0002707  20.3739 287.3878  1.00270062 30678
UTC
Height (km)
Latitude
Longitude
Inclination
Orbital Period
UTC large
Height (km)
Speed (km/s)
/
Latitude / Longitude
Inclination (degrees)
Orbital Period (minutes)
Azimuth
Elevation
Range (km)
Doppler Factor
iOS Compass Heading
iOS Angle

Next 30 passes for location: Hong Kong

Rise time Rise Azimuth (degrees) Set time Set Azimuth (degrees) Duration Max altitude (degrees)

No matching passes for this satellites